PAHOPAMD

Guest
Details From PAHO - HOMER
To PAMD - MIDDLETON ISLAND
Flight Number -
Tags generated
Created
Modified
Stats Distance 162 nm / 300 km
Max Altitude 17,300 ft / 5,273 m
Waypoints 3
Social Downloads 0
Likes 0
Share VATSIM

Download

Looking for another format? Having issues loading an existing format? Contact us
Advertisement - Login to hide

Notes

Basic altitude profile: - Ascent Rate: 2500ft/min - Ascent Speed: 250kts - Cruise Altitude: 10000ft - Cruise Speed: 170kts - Descent Rate: 1500ft/min - Descent Speed: 250kts Options: - Use NATs: yes - Use PACOTS: yes - Use low airways: yes - Use high airways: yes

Route

PAHO WUXAN PAMD

ID Type Via Altitude Latitude Longitude Leg Dist Tot Dist Heading (true) Name
O PAHO APT - 0 ft / 0 m 59.64555˚ -151.47659˚ - 0 nm - HOMER
WUXAN FIX - 17,300 ft / 5,273 m 59.88333˚ -149.00000˚ 76 nm 76 nm 78° / 80° -
O PAMD APT - 0 ft / 0 m 59.45114˚ -146.30678˚ 85 nm 161 nm 106° / 109° MIDDLETON ISLAND

Altitude Profile

Advertisement - Login to hide

PAHO

Details ICAO PAHO (HOM)
Name HOMER
Region USA (Alaska)
Timezone America/Anchorage (UTC-8.0)
Stats Elevation 84 ft / 26 m (AMSL)
Location 59.645547° -151.476589°
Runways 1
Magnetic Variation 15.353° E

METAR

PAHO 270553Z AUTO 24005KT 10SM OVC110 08/04 A2962 RMK AO2 SLP029 T00830044 10106 20083 55004 TSNO

Decode

TAF

PAHO 262324Z 2700/2724 25015KT P6SM VCSH SCT040 BKN070 TEMPO 2700/2704 25015G20KT FM270600 VRB05KT P6SM SCT080 BKN150 FM272100 25015KT P6SM SCT050 BKN080

Decode

Departure Runways

ID Width Length Bearing (true) Bearing (mag) Surface Threshold Offset Overrun Length
03 151 ft / 46 m 6,706 ft / 2,044 m 54.97° 39.62° Asphalt 801 ft / 244 m 0 ft / 0 m
21 151 ft / 46 m 6,706 ft / 2,044 m 234.99° 219.64° Asphalt 0 ft / 0 m 0 ft / 0 m

PAMD

Details ICAO PAMD
Name MIDDLETON ISLAND
Region USA (Alaska)
Timezone America/Anchorage (UTC-8.0)
Stats Elevation 100 ft / 30 m (AMSL)
Location 59.451139° -146.306781°
Runways 2
Magnetic Variation 16.964° E

METAR

PAMD 270551Z AUTO 29005KT 10SM OVC070 07/06 A2956 RMK AO2 SLP000 T00670056 10094 20067 53006

Decode

TAF

Not found

Destination Runways

ID Width Length Bearing (true) Bearing (mag) Surface Threshold Offset Overrun Length
01 115 ft / 35 m 3,151 ft / 960 m 34.26° 17.30° Gravel 0 ft / 0 m 0 ft / 0 m
12 125 ft / 38 m 1,497 ft / 456 m 149.75° 132.79° Gravel 0 ft / 0 m 0 ft / 0 m
19 115 ft / 35 m 3,151 ft / 960 m 214.27° 197.31° Gravel 0 ft / 0 m 0 ft / 0 m
30 125 ft / 38 m 1,497 ft / 456 m 329.75° 312.79° Gravel 0 ft / 0 m 0 ft / 0 m

Popular Alternatives